Location: Anjeux
(47.8815°N, 6.2076°E)
Time: 20:27:39
(UTC+00:00)

Cosmos 2344 - Pass Details

Date: 05 March 2021
Orbit: 1241 x 3001 km, 63.3° (Epoch: 20 April)

Event Time Altitude Azimuth Distance (km) Brightness Sun altitude
Exits shadow 04:25:34 20° 227° (SW) 2,548 4.7 -18.0°
Maximum altitude 04:31:05 79° 313° (NW) 1,283 3.5 -17.1°
Drops below altitude 10° 04:39:12 10° 41° (NE) 3,510 6.6 -15.7°
Sets 04:42:21 0° 42° (NE) 4,651 7.4 -15.2°
